Dewpoint
64 63 62 63 63 64 64 63 62 62 62 61 61 59 59 61 61 62 63 62 62 63 62 60 60 60 59 58 58 58 56 55 55 55 54 52 53 53 53 52 52 51 50
66 64 62 62 63 63 63 62 61 61 61 62 60 59 58 60 60 61 62 62 62 62 61 60 58 59 58 58 57 56 54 54 56 56 55 54 54 53 52 51 51 50 50
66 64 63 62 63 63 62 62 61 61 61 62 59 59 58 59 60 60 60 61 61 61 61 59 59 58 58 57 57 56 55 56 56 56 55 53 53 52 51 51 50 49 49
66 65 64 63 63 63 62 61 61 61 61 60 60 60 58 58 59 59 59 60 60 60 59 58 59 58 58 58 56 55 56 56 56 56 55 53 53 52 52 51 51 50 50
65 65 64 64 63 63 62 62 61 61 60 60 59 59 58 57 58 58 58 58 58 58 58 58 57 58 58 57 55 56 55 56 56 55 54 54 53 52 52 52 51 52 53
65 65 65 64 63 63 62 62 61 60 60 59 59 58 58 57 58 58 57 57 57 57 57 57 57 57 57 58 57 56 55 54 55 54 54 53 54 53 53 53 54 54 55
66 66 65 64 63 63 62 62 60 59 58 59 58 57 58 57 57 58 57 57 56 57 57 57 57 57 57 57 56 55 54 55 54 53 53 53 54 53 54 54 55 55 56
66 66 65 64 63 63 62 61 60 59 58 59 56 55 51 54 56 56 56 56 56 57 57 57 56 56 56 56 55 56 55 53 52 51 51 54 55 55 55 56 56 57 57
66 66 65 64 63 63 61 61 60 59 57 58 57 55 52 51 53 55 55 55 55 56 56 56 56 55 55 56 55 55 55 55 54 54 54 56 56 56 56 56 57 58 58
65 65 65 64 63 63 61 61 61 59 58 57 57 57 54 53 51 50 55 55 55 55 55 56 55 55 55 55 55 55 55 55 54 55 56 57 57 57 57 58 58 56 57
64 64 64 63 63 62 62 61 61 60 59 58 57 56 56 52 52 51 50 52 54 54 54 55 55 54 54 55 55 55 54 54 55 55 56 58 58 58 58 57 56 56 56
63 64 64 63 63 62 62 61 61 60 60 59 58 57 56 53 51 49 49 51 51 53 54 54 54 54 54 54 54 54 54 53 54 57 58 58 58 57 56 55 56 55 53
61 62 63 63 63 63 63 62 61 60 60 59 58 58 57 55 52 51 49 50 51 52 53 52 53 53 53 53 54 54 54 53 54 56 56 56 55 55 56 55 54 52 51
60 62 63 63 63 63 62 62 61 60 60 59 58 58 57 57 56 52 50 50 50 50 51 50 47 50 50 51 51 53 52 52 53 53 53 54 53 52 51 51 49 48 45
60 61 62 62 62 62 62 61 61 60 60 59 59 58 57 58 57 55 53 51 50 48 49 47 46 46 48 49 49 50 50 50 50 49 48 47 46 45 45 45 44 43 40
60 61 61 62 62 62 61 61 61 60 60 59 59 58 58 58 58 57 55 54 53 51 49 48 44 43 44 44 45 45 45 45 44 43 43 42 41 41 41 41 40 37 33
59 60 60 61 61 61 60 60 60 60 59 59 59 59 58 58 58 58 57 55 54 53 50 40 41 42 41 41 41 40 39 39 39 39 39 38 38 38 39 37 34 31 30
56 59 60 60 60 61 60 60 59 59 59 58 58 58 58 58 58 58 57 55 54 54 49 41 39 38 38 38 37 36 35 35 36 37 36 35 35 35 36 34 30 28 27
50 55 59 59 59 59 59 59 59 59 58 58 58 58 58 57 57 57 57 56 55 54 49 41 38 39 35 35 33 33 33 33 34 34 33 32 32 33 33 31 28 25 26
45 49 56 59 58 58 58 58 58 58 57 57 57 57 57 56 56 57 56 55 54 52 47 43 39 37 34 33 33 30 29 32 30 31 32 32 31 30 29 27 26 26 26
42 46 50 58 58 58 57 56 57 56 56 56 56 56 56 57 57 57 56 56 55 50 45 42 38 34 32 31 31 31 30 29 28 30 29 30 30 30 30 28 27 25 21
41 42 46 49 58 57 56 55 55 55 55 55 54 55 55 55 55 55 56 55 54 48 45 41 39 35 33 32 32 30 27 26 25 29 28 27 29 28 28 28 25 21 18
38 40 42 46 55 57 55 53 53 54 54 54 54 53 53 53 54 54 53 54 53 47 46 44 40 39 34 34 33 30 30 29 26 27 27 25 28 27 28 20 20 18 17
37 39 41 45 51 56 54 53 51 53 52 51 51 51 52 51 50 51 49 47 47 48 45 45 43 41 38 35 34 33 32 28 26 28 27 21 25 23 20 19 19 17 17
37 38 40 41 43 49 49 48 49 47 45 42 40 41 44 45 44 44 45 43 39 36 39 44 44 42 39 37 36 31 28 27 22 24 26 23 23 19 18 17 17 17 18
36 38 38 38 38 41 39 43 46 42 40 38 35 35 37 39 40 39 42 39 37 33 34 35 36 36 36 33 33 35 32 31 22 20 24 21 22 21 19 14 15 16 17
Wind_Speed
15 12 12 13 12 11 11 11 9 10 10 7 7 10 6 11 13 11 14 20 17 19 20 17 16 17 17 16 18 19 18 18 18 18 16 14 14 14 14 12 12 10 8
13 13 13 13 13 12 11 10 11 13 10 10 11 10 9 7 10 10 13 15 18 18 19 18 18 18 17 17 17 17 17 17 18 18 17 15 13 13 13 11 10 8 7
14 16 15 14 14 14 14 12 10 10 10 10 11 11 10 10 8 12 14 13 15 18 19 17 17 17 18 18 17 17 17 17 18 17 16 15 14 12 11 10 9 7 6
15 15 16 16 15 15 15 13 12 12 11 12 9 10 9 9 10 10 13 12 14 13 15 16 18 18 18 18 18 17 18 18 17 17 16 15 13 12 11 9 8 6 5
19 18 17 16 17 16 15 14 11 12 12 12 12 11 11 12 11 9 11 14 15 14 14 17 18 20 19 19 18 18 18 18 17 16 15 14 13 11 10 9 7 6 5
22 21 16 17 19 17 15 15 16 12 11 13 11 11 8 8 10 11 12 12 14 14 15 15 16 16 21 19 19 19 19 18 18 17 15 14 13 12 11 9 8 7 6
22 23 20 20 21 22 22 20 12 17 7 12 10 7 5 8 10 10 11 12 13 14 16 16 15 14 16 20 17 19 19 19 18 16 15 14 13 12 10 9 8 7 8
22 23 21 20 21 18 20 20 21 12 7 17 10 10 7 5 8 12 11 12 13 12 15 16 16 16 15 13 15 18 20 20 19 17 16 15 15 13 12 11 10 10 9
19 21 22 20 20 19 20 24 23 22 17 16 17 9 6 8 9 8 13 13 14 14 14 15 16 16 16 16 16 17 17 18 19 17 17 16 16 14 13 13 12 5 4
19 21 20 20 21 20 21 23 22 23 22 19 15 13 6 10 7 6 9 16 14 16 15 15 16 16 16 16 18 19 18 17 19 20 20 19 18 16 15 11 8 5 5
19 20 22 23 22 21 22 23 21 20 22 22 22 20 15 7 10 6 10 14 14 18 16 16 16 17 17 17 17 18 22 20 16 19 18 17 15 13 11 9 7 9 10
14 20 22 23 24 23 22 22 23 26 23 20 20 20 22 18 15 12 9 21 22 14 15 14 15 16 17 17 18 21 24 22 19 13 14 15 13 11 10 10 13 15 15
12 16 20 22 22 23 22 21 23 24 24 22 22 22 20 23 15 19 16 15 15 5 7 5 8 11 13 15 16 21 25 23 18 18 16 15 14 13 16 17 16 16 15
14 13 16 18 18 20 21 23 22 22 23 22 22 20 19 19 19 17 20 21 13 9 5 6 2 5 9 11 13 19 17 22 22 20 19 21 22 21 19 19 18 17 16
12 14 15 16 18 20 21 21 21 21 20 21 20 19 20 18 16 17 19 21 20 20 19 9 6 5 8 10 13 12 15 24 28 28 27 27 25 23 19 18 19 17 15
11 13 15 15 17 19 19 22 19 19 20 18 17 20 22 20 18 20 20 19 23 24 20 5 4 7 12 13 13 17 19 22 24 27 26 24 22 22 21 21 19 18 16
12 11 16 17 19 20 19 21 19 18 22 20 20 22 23 21 19 18 21 23 24 24 23 5 5 13 10 19 16 17 16 19 18 24 25 24 22 21 16 14 20 19 17
16 13 13 16 17 20 22 23 21 19 22 22 22 21 21 18 22 19 22 25 24 20 14 19 17 8 10 13 17 18 15 15 17 20 23 23 23 21 22 18 12 17 15
17 17 11 15 17 20 21 22 22 20 21 21 21 20 18 15 16 18 17 23 28 25 21 19 14 9 7 15 15 14 15 15 15 20 20 21 20 19 19 20 13 12 11
15 16 16 15 18 19 20 20 20 20 18 18 17 17 17 19 21 19 16 22 24 20 21 24 16 19 17 13 15 23 17 12 15 12 12 13 19 18 16 16 13 11 9
14 15 19 17 17 19 19 20 20 20 19 17 17 18 19 20 23 22 19 22 20 23 24 24 22 18 16 23 25 15 15 18 10 8 14 11 12 12 12 13 10 10 9
15 17 17 21 17 18 23 27 23 20 18 17 19 19 18 22 23 26 25 22 27 27 25 21 22 27 26 26 19 25 24 19 10 6 11 12 9 11 10 10 12 11 8
18 18 18 21 21 21 25 29 30 20 20 19 19 18 19 19 22 23 27 26 23 31 40 36 35 32 27 33 28 28 25 20 8 20 17 9 7 10 9 9 12 10 8
19 17 18 20 23 19 20 29 30 17 18 16 17 19 20 21 18 21 19 16 17 28 28 24 31 35 30 35 35 28 28 17 19 17 8 7 8 7 9 9 12 10 8
20 17 15 20 20 20 17 26 22 16 14 11 6 5 10 13 13 15 17 19 14 5 4 10 21 25 26 36 30 31 26 28 10 10 4 5 11 11 7 8 7 9 6
20 18 13 14 13 14 8 15 19 16 16 12 6 5 3 8 14 18 20 22 21 13 18 22 23 27 28 24 28 15 32 31 18 8 9 7 18 8 6 6 6 5 5
Wind_Direction
183 177 174 173 176 173 175 178 190 203 191 142 134 148 143 172 189 170 165 178 177 169 169 177 176 165 161 165 155 152 153 151 150 147 144 145 142 134 132 130 122 119 117
183 184 176 178 178 177 183 186 196 198 184 141 130 149 163 179 180 169 167 181 185 180 174 176 181 170 168 166 157 159 165 162 153 150 147 145 145 142 142 140 133 136 135
186 185 186 184 182 185 187 196 189 189 176 166 171 152 168 169 177 171 169 175 181 181 177 179 179 173 170 170 165 167 169 167 157 154 154 156 157 158 152 149 147 157 157
188 185 188 190 185 181 186 191 184 182 183 181 163 162 175 177 172 183 161 170 172 178 181 186 182 175 171 169 172 174 174 168 163 159 159 161 167 168 165 165 174 182 189
196 195 192 188 180 186 189 188 183 180 189 181 180 175 176 172 173 174 174 178 179 179 175 187 185 181 174 174 180 181 179 172 167 168 168 171 179 179 180 186 192 205 213
199 196 190 185 179 188 188 185 187 183 188 178 164 168 155 170 166 181 193 188 186 184 181 185 189 188 178 177 179 191 185 182 175 177 176 184 189 192 196 201 208 220 229
200 198 196 191 190 193 194 184 168 179 172 161 140 151 140 179 177 194 196 198 193 193 188 186 184 178 180 179 186 195 188 183 185 179 186 195 200 203 206 212 221 230 237
201 202 200 195 190 194 191 182 174 172 175 170 176 156 181 217 201 200 188 198 200 196 197 187 182 180 173 177 192 203 195 189 190 188 193 199 206 207 209 214 226 238 249
202 203 202 197 188 192 195 185 182 178 182 186 178 157 160 200 190 197 199 195 198 201 203 192 186 182 179 177 192 203 203 192 193 191 196 202 207 210 217 222 239 210 154
202 201 196 198 191 191 200 196 188 188 181 190 192 216 192 148 181 177 192 198 194 204 204 199 188 186 182 183 192 198 207 208 192 196 201 206 210 207 224 191 175 172 162
209 206 198 195 194 194 198 194 187 192 193 185 196 200 218 191 195 168 192 189 202 206 202 204 192 187 185 188 194 200 204 212 210 211 210 214 204 190 175 183 180 149 126
218 212 204 199 196 192 194 195 195 193 196 192 196 196 201 197 197 200 194 196 203 203 202 198 193 195 192 193 195 197 203 209 207 196 169 162 169 176 174 175 145 127 120
236 220 196 197 194 194 195 195 198 196 195 198 192 200 203 213 204 202 199 189 188 148 177 192 197 198 190 188 194 194 203 204 190 176 167 162 161 163 138 130 130 123 121
246 242 204 189 189 189 194 188 194 195 193 203 202 202 206 211 209 201 200 179 181 182 161 182 159 174 174 179 188 188 190 185 164 153 139 126 120 117 118 126 130 128 122
257 249 226 206 189 185 187 190 191 193 190 201 206 204 214 214 210 210 207 194 188 190 193 179 173 149 135 136 140 139 144 148 139 134 125 121 121 120 124 128 126 120 112
276 243 230 214 195 195 195 192 198 187 193 198 205 209 216 218 213 211 206 195 201 201 193 148 173 142 131 109 115 118 120 114 120 123 122 121 122 127 133 129 125 120 111
294 270 234 217 205 197 194 195 196 187 198 205 205 211 214 213 217 218 212 197 199 199 194 127 118 135 119 126 118 110 112 111 109 113 117 118 118 119 116 122 126 120 115
318 284 246 220 215 205 196 200 200 197 202 208 209 214 217 215 223 229 219 202 201 201 164 155 143 145 131 132 126 117 113 109 115 118 119 123 123 123 121 117 115 114 117
320 311 266 228 214 209 200 201 202 201 204 208 207 207 210 210 227 229 229 220 206 194 170 156 145 150 128 143 124 106 110 109 112 123 123 124 123 123 126 126 132 124 119
313 306 298 244 219 208 205 202 198 194 202 203 204 209 217 225 231 231 226 214 193 174 154 156 143 151 149 154 140 137 129 128 127 123 122 130 130 131 131 134 143 138 153
317 312 313 271 225 212 208 203 198 199 205 212 211 214 217 219 226 228 231 209 191 174 161 157 153 154 156 162 167 163 146 137 122 142 138 148 142 136 148 135 153 158 171
327 325 314 307 238 217 214 203 192 196 197 205 218 217 216 220 227 224 224 221 178 168 166 164 165 171 175 175 161 158 149 145 160 179 150 150 154 157 156 152 176 178 180
323 324 315 308 278 226 214 208 201 194 194 204 214 217 220 219 220 224 225 218 199 186 175 174 177 183 170 177 163 159 170 162 154 155 145 149 172 159 165 172 175 178 186
318 314 311 308 293 241 210 209 201 193 190 197 205 212 221 223 218 217 215 209 199 196 187 188 186 178 180 170 173 172 160 122 110 137 128 134 164 148 160 163 178 192 193
312 306 304 304 303 274 217 207 191 177 174 174 178 202 215 217 208 191 188 182 168 153 90 206 173 164 166 162 153 135 144 136 126 166 163 117 151 134 150 172 193 186 171
303 300 300 299 302 288 299 217 175 165 171 167 147 136 157 195 171 172 179 174 171 161 133 120 117 122 133 137 149 162 158 162 135 144 188 117 148 142 149 190 172 154 156